Location: Allaines
(49.9632°N, 2.9458°E)
Time: 04:56:57
(UTC+00:00)

X-37B - Pass Details

Date: 27 June 2021
Orbit: 383 x 392 km, 45.0° (Epoch: 01 July)

Event Time Altitude Azimuth Distance (km) Brightness Sun altitude
Rises 21:24:47 0° 254° (WSW) 2,256 4.7 -9.9°
Reaches altitude 10° 21:26:57 10° 245° (WSW) 1,402 3.5 -10.1°
Maximum altitude 21:29:50 33° 179° (S) 670 1.3 -10.3°
Enters shadow 21:32:10 14° 118° (ESE) 1,202 2.5 -10.5°
